Location: Rockford
(42.2710°N, 89.0940°W)
Time: 08:29:08
(UTC-05:00)

SPOT 5 - Visible Passes

Search period start: 31 July 2014 00:00
Search period end: 10 August 2014 00:00
Orbit: 824 x 826 km, 98.6° (Epoch: 31 July)

Date Brightness Start Highest point End Pass type
(mag) Time Alt. Az. Time Alt. Az. Time Alt. Az.
31 Jul 4.3 20:59:16 10° ESE 21:03:40 27° ENE 21:08:06 10° N visible
31 Jul 4.1 22:40:32 21° SSW 22:43:39 42° W 22:48:44 10° NNW visible
01 Aug 4.7 20:40:54 10° ESE 20:44:33 19° ENE 20:48:12 10° NNE visible
01 Aug 3.5 22:21:01 24° S 22:24:14 63° WSW 22:29:34 10° NNW visible
02 Aug 3.1 22:01:30 24° SSE 22:04:53 89° ENE 22:10:17 10° NNW visible
02 Aug 5.6 23:44:08 10° WSW 23:45:46 11° W 23:47:25 10° WNW visible
03 Aug 3.3 21:42:00 21° SSE 21:45:35 61° ENE 21:50:53 10° N visible
03 Aug 5.3 23:23:27 13° SW 23:26:11 18° W 23:29:43 10° NW visible
04 Aug 3.7 21:22:29 16° SE 21:26:20 41° ENE 21:31:21 10° N visible
04 Aug 4.8 23:03:57 18° SW 23:06:39 26° W 23:11:07 10° NW visible
05 Aug 4.2 21:02:59 12° ESE 21:07:09 29° ENE 21:11:42 10° N visible
05 Aug 4.2 22:44:26 23° SSW 22:47:10 39° W 22:52:11 10° NNW visible
06 Aug 4.7 20:44:11 10° ESE 20:48:01 20° ENE 20:51:51 10° NNE visible
06 Aug 3.6 22:24:56 27° S 22:27:45 58° W 22:33:03 10° NNW visible
07 Aug 3.1 22:05:26 28° SSE 22:08:23 85° WSW 22:13:47 10° NNW visible
07 Aug 5.7 23:48:40 10° W 23:49:20 10° W 23:50:01 10° W visible
08 Aug 3.2 21:45:56 25° SSE 21:49:04 66° ENE 21:54:24 10° N visible
08 Aug 5.3 23:27:24 13° WSW 23:29:44 16° W 23:33:00 10° NW visible
09 Aug 3.6 21:26:26 20° SE 21:29:49 45° ENE 21:34:54 10° N visible
09 Aug 4.9 23:07:54 18° SW 23:10:11 24° W 23:14:30 10° NW visible
